GEFSNE_con_maxscp_282.txt.gz
SCP
3 3 3 2 2 3 2 2 2 1 2 2 2 1 1 1 1 1 1 1 0 0 0 0 0 0 0 0 0 0 0 0 0 0 0 1 1 1
5 4 3 3 3 3 3 2 2 2 2 2 2 1 1 1 1 1 1 1 1 0 0 0 0 0 0 0 0 0 1 1 1 1 0 0 1 1
6 5 4 4 3 3 3 3 2 2 2 2 2 1 1 2 2 2 1 1 1 1 0 0 0 0 0 0 0 0 1 1 1 1 0 0 0 0
5 5 5 4 4 3 3 3 2 2 2 2 1 2 2 2 2 2 1 1 1 1 1 0 0 0 0 0 0 0 0 0 1 1 0 0 0 0
4 4 4 4 4 4 3 3 3 3 2 2 1 2 2 2 2 2 2 2 1 1 1 1 0 0 0 0 0 0 0 0 0 0 0 0 0 0
4 4 3 3 3 4 3 3 3 3 2 2 2 2 2 2 2 2 2 2 2 1 1 1 1 1 0 0 0 0 0 0 0 0 0 0 0 0
3 3 3 3 3 3 3 3 3 2 2 2 2 2 2 3 2 2 2 2 2 2 2 1 1 1 1 1 0 0 0 0 0 0 0 0 0 0
3 3 2 2 2 2 2 2 2 2 2 2 2 2 3 3 3 2 2 2 2 2 2 2 2 2 1 1 1 0 0 0 0 0 0 0 0 0
3 2 2 1 1 2 1 1 1 1 1 2 2 2 3 3 4 4 3 3 2 2 2 2 2 2 1 1 1 0 0 0 0 0 0 0 0 0
2 2 1 1 1 2 2 2 2 2 2 2 2 3 3 4 5 5 5 4 3 2 2 2 2 1 1 1 1 0 0 0 0 0 0 0 0 0
1 1 1 1 1 1 2 2 2 2 2 2 3 3 3 3 4 5 6 5 3 2 2 2 2 2 1 1 1 1 0 0 0 0 0 0 0 0
2 2 2 2 1 1 1 2 2 3 3 3 3 4 4 4 4 6 6 5 3 2 2 2 2 2 2 2 2 1 1 0 0 0 0 0 0 0
3 3 3 2 1 1 1 2 2 2 3 4 5 5 6 7 7 7 7 6 4 2 3 3 3 2 2 2 2 2 2 1 1 0 0 0 0 0
4 4 3 2 1 0 0 1 1 2 3 4 5 6 7 8 9 8 7 6 4 3 3 3 3 3 3 2 2 2 2 2 1 1 1 1 0 0
4 4 2 1 0 0 0 0 1 2 3 4 5 5 6 7 8 9 8 6 4 3 3 3 4 4 4 3 3 2 2 2 2 1 1 1 1 1
5 4 2 1 1 1 1 2 2 3 4 4 5 5 5 6 7 8 8 7 4 3 3 3 3 4 4 4 4 3 3 3 3 2 2 2 2 2
4 4 3 3 3 3 3 3 4 4 5 5 5 5 5 5 6 7 7 7 5 3 2 3 3 3 4 4 4 4 4 4 4 3 3 2 2 2
2 2 3 3 3 2 3 3 3 4 4 5 5 6 6 6 6 6 7 7 5 3 3 3 3 3 3 3 3 4 4 4 5 4 3 2 2 1
0 1 1 1 1 1 2 2 2 2 3 3 4 5 6 6 6 7 7 7 5 4 3 3 3 3 2 2 2 3 3 4 4 4 3 2 2 1
0 0 1 1 1 1 1 1 1 1 1 2 3 4 5 6 6 6 6 6 5 4 3 3 2 2 2 2 2 2 2 2 2 3 3 2 2 1
1 1 1 1 1 1 1 1 1 1 1 1 1 2 3 4 4 5 5 5 4 3 3 2 2 1 2 2 2 1 1 1 1 1 2 2 1 1
1 1 1 1 1 1 1 0 0 0 0 0 0 1 1 2 3 3 3 3 2 2 1 1 1 1 1 2 1 1 1 1 1 1 1 1 1 1
1 1 1 1 1 1 1 0 0 0 0 0 0 0 1 1 2 2 2 2 1 1 1 1 1 1 1 1 1 1 1 1 1 0 1 1 1 0

GEFSNE_con_maxscp_288.txt.gz
SCP
6 6 6 6 5 4 4 4 3 2 2 2 2 2 2 2 2 2 2 2 1 1 0 0 0 0 0 1 1 1 1 0 0 0 0 0 0 0
6 6 6 6 5 4 4 4 4 3 2 2 2 2 2 2 2 2 2 2 1 1 0 0 0 0 0 1 1 1 1 0 0 0 0 0 0 0
6 7 7 6 6 5 4 4 5 4 3 2 2 3 3 3 2 2 2 2 2 1 1 0 0 0 0 1 1 1 0 0 0 0 0 0 0 0
9 9 9 8 7 6 5 5 5 5 4 3 2 2 3 3 3 3 3 3 2 2 1 1 0 0 0 0 0 0 0 0 0 0 0 0 0 0
12 12 12 11 10 8 6 5 5 5 5 3 2 2 2 2 3 3 3 3 3 2 1 1 1 0 0 0 0 0 0 0 0 0 0 0 0 0
14 14 15 14 13 11 8 6 5 6 6 4 2 2 2 2 3 3 4 4 3 3 2 1 1 1 1 0 0 0 0 0 0 0 0 0 0 0
13 14 15 14 11 9 7 5 5 6 6 4 2 1 2 2 3 3 3 3 4 4 3 3 2 2 1 1 0 0 0 0 0 0 0 0 0 0
11 12 13 10 6 4 3 2 3 4 4 3 2 1 1 2 2 2 2 3 3 4 5 4 3 3 3 2 1 0 0 0 0 0 0 0 0 0
9 10 11 8 3 1 1 1 1 2 2 2 2 2 2 2 2 2 2 2 2 4 4 4 3 3 3 3 2 1 0 0 0 0 0 0 0 0
7 8 10 8 3 2 2 2 2 2 2 1 1 2 2 2 2 2 2 2 2 3 4 4 4 3 3 3 2 1 0 0 0 0 0 0 0 0
5 6 7 5 3 2 3 3 3 3 2 2 2 2 2 2 2 2 2 2 2 3 4 5 4 4 3 3 2 1 0 0 0 0 0 0 0 0
4 4 4 3 2 2 3 3 3 3 2 2 2 2 2 2 2 2 3 3 3 4 4 5 5 5 4 3 2 2 1 1 0 0 0 0 0 0
3 3 2 1 1 1 1 1 1 2 2 2 2 3 3 2 2 3 4 4 5 5 5 5 5 5 5 4 3 3 2 2 1 0 0 0 0 0
3 2 1 0 0 0 0 0 0 1 1 1 2 2 2 3 3 3 4 5 5 5 5 5 6 6 6 6 6 5 4 4 3 2 1 1 0 0
1 1 1 0 0 0 0 0 0 1 1 1 2 2 3 3 4 4 4 5 5 5 5 6 6 7 8 8 9 8 6 5 4 4 3 2 2 1
1 1 1 1 1 1 1 1 2 3 3 3 3 2 3 3 4 4 4 4 4 4 4 5 6 7 8 9 9 9 8 6 5 5 4 3 2 2
2 3 3 3 3 3 4 5 5 5 5 4 3 2 2 2 2 2 3 3 3 3 3 4 5 5 6 7 8 8 7 6 4 4 4 4 3 2
4 5 5 4 4 4 5 6 5 5 3 2 2 1 1 1 1 1 2 2 3 2 3 3 3 3 4 4 5 5 5 5 4 3 3 3 3 2
3 4 4 3 3 3 3 3 3 2 2 2 1 1 1 1 1 1 2 2 2 2 2 2 2 2 2 2 2 3 3 3 3 3 2 2 2 3
1 2 2 2 2 2 2 1 1 2 2 2 2 2 2 2 2 1 1 2 2 1 1 1 1 1 1 1 1 1 1 2 2 2 2 2 2 2
1 1 1 1 1 1 2 2 2 2 2 2 2 2 2 2 2 1 1 1 1 1 1 1 1 1 1 1 1 1 1 1 1 1 2 2 2 2
1 0 1 1 1 1 2 2 1 1 1 1 1 1 1 1 1 1 1 1 1 1 1 1 1 1 1 1 1 1 1 1 1 1 1 1 1 1
1 1 1 1 1 1 1 1 1 1 1 1 1 1 1 1 1 1 1 1 1 1 1 1 1 1 1 1 1 1 1 1 1 1 1 1 1 1

GEFSNE_con_maxscp_294.txt.gz
SCP
4 4 4 4 5 5 4 4 4 3 2 1 1 1 1 1 1 1 1 1 0 0 0 0 0 0 0 0 0 0 0 1 1 1 1 1 1 1
4 4 5 6 6 7 6 6 5 4 3 2 1 1 1 1 1 0 0 0 0 0 0 0 0 0 0 0 0 0 0 0 0 0 0 1 1 1
5 5 6 7 8 9 9 8 7 12 15 9 1 1 1 0 0 0 0 0 0 0 0 0 0 0 0 0 0 0 0 0 0 0 0 0 1 1
6 6 7 8 9 10 10 10 9 18 26 13 1 0 0 0 0 0 0 0 1 1 1 0 0 0 0 0 0 0 0 0 0 0 0 0 1 1
5 6 7 8 9 10 11 11 10 14 16 9 1 0 0 0 0 0 0 1 1 1 1 1 0 0 0 0 0 0 0 0 0 0 0 0 0 0
5 5 6 6 7 8 9 9 9 8 6 3 1 0 0 0 0 0 0 0 1 1 1 1 0 0 0 0 0 0 0 0 0 0 0 0 0 0
3 3 4 5 5 5 6 7 7 7 5 3 1 0 0 0 0 0 0 0 0 1 1 1 1 1 0 0 0 0 0 0 0 0 0 0 0 0
1 2 2 2 3 3 3 4 4 5 4 3 1 0 0 0 0 0 0 1 1 1 1 1 1 1 1 1 1 0 0 0 0 0 0 0 0 0
0 1 1 1 1 2 2 2 3 3 3 2 1 1 0 0 0 1 1 1 1 1 1 1 1 1 1 1 1 1 0 0 0 0 0 0 0 0
0 0 1 1 1 1 2 2 2 2 2 1 1 1 1 0 0 1 1 1 2 2 1 1 1 1 2 2 2 1 1 0 0 0 0 0 0 0
0 0 1 1 1 1 1 2 2 2 1 1 1 1 0 0 0 0 1 1 2 2 2 2 2 2 2 2 2 1 1 0 0 0 0 0 0 0
0 0 0 0 0 0 1 1 1 1 1 1 1 0 0 0 0 0 1 1 2 2 2 3 3 3 3 2 2 1 1 0 0 0 0 0 0 0
1 0 0 0 0 0 0 0 1 1 1 1 0 0 0 0 0 1 1 2 2 2 3 4 5 5 5 3 2 1 1 0 0 0 0 0 0 0
0 0 0 0 0 0 0 0 0 0 0 0 0 0 0 1 1 2 2 2 2 3 3 5 6 6 5 4 2 1 1 1 0 0 0 1 1 1
0 0 0 0 0 0 0 0 0 0 0 0 0 1 1 1 2 2 2 2 2 2 3 4 4 4 4 3 2 1 0 1 1 1 1 1 1 1
0 0 0 0 0 0 0 0 0 0 0 0 1 1 2 2 2 2 1 1 1 1 1 1 1 1 1 1 1 0 0 0 1 1 1 1 1 1
0 0 0 0 0 0 0 0 1 1 1 1 1 2 2 1 1 0 0 0 0 0 0 0 0 0 0 0 0 0 0 0 1 1 1 1 1 0
0 0 0 0 0 0 1 1 1 1 2 1 1 1 1 0 0 0 0 0 0 0 0 0 0 0 0 0 0 0 0 0 0 1 1 1 1 1
0 0 0 1 1 1 1 1 1 1 1 1 0 0 0 0 0 0 0 0 0 0 0 0 0 0 0 0 0 0 0 0 0 0 1 1 1 1
0 0 1 1 1 1 1 1 1 0 0 0 0 0 0 0 0 0 0 0 0 0 0 0 0 0 0 0 0 0 0 0 0 0 0 1 1 1
0 0 1 1 1 1 1 1 0 0 0 0 0 0 0 0 0 0 0 0 0 0 0 0 0 0 0 0 0 0 0 0 0 0 0 0 1 1
1 0 0 1 1 1 0 0 0 0 0 0 0 0 0 0 0 0 0 0 0 0 0 0 0 0 0 0 0 0 0 0 0 0 0 0 0 0
0 0 0 0 0 0 0 0 0 0 0 0 0 0 0 0 0 0 0 0 0 0 0 0 0 0 0 0 0 0 0 0 0 0 0 0 0 0

GEFSNE_con_maxscp_300.txt.gz
SCP
4 4 3 4 4 5 5 5 5 5 4 3 2 2 1 1 2 1 1 1 1 0 1 1 1 1 1 1 0 0 0 1 1 0 0 1 1 1
4 4 4 4 5 5 6 6 7 6 6 5 3 2 1 1 2 2 2 1 1 0 0 1 1 1 1 0 0 0 0 0 0 0 0 0 1 1
4 4 4 5 6 7 7 8 8 8 7 6 5 3 2 2 2 2 2 1 1 0 0 0 1 0 0 0 0 0 0 0 0 0 0 0 0 0
4 3 4 4 5 6 6 7 7 7 7 7 6 4 2 2 2 2 2 2 1 0 0 0 0 0 0 0 0 0 0 0 0 0 0 0 0 0
2 2 2 3 3 3 3 4 4 4 5 6 6 4 2 2 1 1 1 1 1 0 0 0 0 0 0 0 0 0 0 0 0 0 0 0 0 0
1 1 1 1 1 1 2 2 2 2 2 4 4 4 3 2 1 1 1 0 0 0 0 0 0 0 0 0 0 0 0 0 0 0 0 0 0 0
1 1 1 1 1 1 1 1 1 1 1 2 3 3 3 2 2 2 1 0 0 0 1 1 1 1 1 1 1 1 0 0 0 0 0 0 0 0
1 1 1 1 1 1 1 1 1 1 1 1 2 2 3 3 3 2 1 1 1 1 1 1 1 1 1 1 1 1 0 0 0 0 0 0 0 0
1 1 1 1 1 1 1 0 0 0 0 1 1 1 2 3 3 3 2 1 1 1 1 1 1 1 1 1 1 0 0 0 0 0 0 0 0 0
0 0 0 1 1 1 1 1 0 0 0 0 1 1 1 2 2 3 2 1 1 1 1 1 1 1 2 2 1 1 0 0 0 0 0 0 0 0
0 0 0 0 0 1 1 0 0 0 0 0 0 0 0 1 1 2 2 1 1 1 1 2 2 2 2 2 2 1 1 1 0 0 0 0 0 0
0 0 0 0 0 0 0 0 0 0 0 0 0 0 0 0 0 1 1 1 1 1 2 3 3 3 3 3 3 2 1 1 1 0 0 0 0 0
1 0 0 0 0 0 0 0 0 0 0 0 0 0 0 0 0 1 1 1 1 2 3 3 4 4 3 2 2 2 1 1 1 1 0 0 0 0
1 1 0 0 0 0 0 0 0 0 0 0 0 0 0 0 0 1 1 1 2 2 3 4 4 4 2 1 1 1 1 1 1 1 1 0 0 0
1 0 0 0 0 0 0 0 0 0 0 0 0 0 0 0 0 1 2 2 3 3 2 2 2 2 1 0 0 0 1 1 1 1 1 1 1 0
0 0 0 0 0 0 0 0 0 0 0 0 0 0 0 0 1 1 2 3 3 2 1 1 1 0 0 0 0 0 0 1 1 1 1 1 1 0
0 0 1 1 1 1 1 1 0 0 0 0 0 0 0 1 1 2 2 2 1 1 0 0 0 0 0 0 0 0 0 1 1 1 1 1 1 1
0 1 1 1 1 1 1 1 1 1 1 1 1 1 1 1 1 2 1 1 0 0 0 0 0 0 0 0 0 0 0 1 1 1 1 1 1 1
0 1 1 1 1 1 1 1 1 1 1 1 1 1 1 1 1 1 0 0 0 0 0 0 0 0 0 0 0 0 0 0 1 1 1 1 0 0
1 2 2 2 1 1 1 1 1 1 1 0 0 0 0 0 0 0 0 0 0 0 0 0 0 0 0 1 0 0 0 0 0 0 0 0 0 0
4 4 4 4 3 2 2 1 1 0 0 0 0 0 0 0 0 0 0 0 0 0 0 0 0 0 1 1 0 0 0 0 0 0 0 0 0 0
7 6 5 5 4 3 3 2 1 0 0 0 0 0 0 0 0 0 0 0 0 0 0 0 0 0 1 0 0 0 0 0 0 0 0 0 0 0
8 8 6 5 4 4 3 2 1 0 0 0 0 0 0 0 0 0 0 0 0 0 0 0 0 0 0 0 0 0 0 0 0 0 0 0 0 0

GEFSNE_con_maxscp_306.txt.gz
SCP
4 5 6 7 8 8 9 9 8 7 6 5 6 6 5 4 4 4 4 2 1 0 0 0 1 1 2 2 2 1 1 1 1 1 0 0 0 0
5 6 6 7 8 8 8 8 8 7 5 5 5 5 4 3 3 4 4 3 2 1 0 0 1 1 1 1 1 1 1 1 1 1 0 0 0 0
5 5 5 5 5 5 5 5 5 5 4 3 3 3 3 2 3 3 4 3 2 1 0 0 0 0 1 1 1 1 0 0 0 0 0 0 0 0
3 3 3 2 2 2 2 2 2 3 2 2 1 1 2 2 2 2 3 3 2 1 0 0 0 0 0 0 0 0 0 0 0 0 0 0 0 0
2 2 2 2 2 2 2 2 2 2 2 2 1 1 1 1 1 1 2 2 2 1 1 0 0 0 0 0 0 0 0 0 0 0 0 0 0 0
2 2 2 2 2 2 2 2 2 2 1 1 1 1 1 1 1 1 1 2 2 2 2 1 1 1 0 0 0 0 0 0 0 0 0 0 0 0
3 3 3 2 1 1 1 1 1 1 1 1 1 1 1 1 1 1 1 2 3 3 3 3 2 2 1 1 1 1 0 0 0 0 0 0 0 0
3 3 3 2 1 1 1 1 1 1 1 1 1 1 1 0 0 1 1 2 3 3 3 2 3 3 2 2 2 2 1 0 0 0 0 0 0 0
4 3 2 2 2 2 1 1 1 1 1 1 1 1 1 1 1 1 2 2 2 2 2 2 2 3 2 2 2 2 1 0 0 0 0 0 0 0
4 3 3 2 2 2 2 1 1 1 1 1 1 1 1 1 1 1 2 2 1 1 1 1 2 2 2 2 3 3 2 1 0 0 0 0 0 0
4 4 3 2 2 2 2 2 2 2 1 1 1 1 0 1 1 1 1 1 1 1 1 2 2 2 2 3 4 4 3 2 1 0 0 0 0 0
5 4 3 2 2 1 2 2 2 2 2 1 1 1 1 1 1 1 1 1 1 1 2 2 2 3 3 4 5 6 5 3 1 0 0 0 0 0
5 5 3 2 1 1 1 2 2 2 2 2 2 1 1 1 1 1 2 2 2 2 2 3 3 4 5 6 6 7 6 4 2 1 0 0 0 0
6 5 4 2 1 0 1 1 1 2 2 2 2 2 2 2 2 2 2 2 3 3 3 3 4 5 6 6 7 7 6 3 1 1 1 0 0 0
6 5 3 2 1 0 0 0 1 1 2 2 2 2 2 2 2 2 3 3 3 3 3 4 5 6 6 6 6 5 4 2 1 1 1 1 1 1
5 5 4 3 2 2 2 1 1 2 2 3 2 2 3 3 3 3 3 3 3 3 4 5 5 5 5 5 4 3 2 1 1 1 1 1 1 1
5 6 7 6 5 4 4 3 3 3 3 3 3 3 3 3 3 3 3 3 3 3 4 4 3 3 3 3 2 1 1 1 1 1 1 1 1 1
6 8 9 8 8 7 6 6 5 5 4 4 4 4 3 3 3 4 4 3 3 3 3 3 2 1 1 1 1 1 1 1 1 2 1 1 1 1
7 8 9 9 9 8 8 8 7 7 6 6 5 5 4 4 4 5 5 4 3 3 3 3 2 1 1 1 1 1 1 1 2 1 1 1 1 1
7 8 10 10 10 9 9 9 9 9 8 7 6 5 5 5 5 6 6 5 4 4 4 4 3 2 1 1 1 0 0 1 1 2 2 1 1 1
7 9 11 11 10 8 9 10 10 10 10 9 8 6 6 6 6 6 6 6 5 5 5 4 4 2 1 1 1 1 0 0 1 1 1 1 1 0
9 10 12 10 8 7 7 9 9 9 9 10 9 8 6 6 6 6 5 6 6 6 5 5 4 3 1 1 1 1 0 0 0 1 1 1 0 0
10 11 11 9 6 6 6 7 7 7 8 9 9 8 7 6 6 6 6 6 6 6 5 5 4 3 1 1 1 0 0 0 0 0 0 0 0 0

GEFSNE_con_maxscp_312.txt.gz
SCP
5 4 4 5 5 5 5 5 5 4 3 3 3 3 4 4 3 3 2 1 1 1 1 1 1 2 2 2 2 1 1 1 1 1 0 0 1 1
5 4 4 4 5 5 5 5 5 4 4 3 2 3 3 3 2 2 2 1 1 1 1 1 1 2 2 2 2 1 1 1 1 1 0 0 0 0
5 4 4 4 4 4 4 4 4 4 4 3 2 2 2 2 2 2 1 1 1 1 0 0 1 1 1 1 1 1 1 0 0 0 0 0 0 0
3 3 3 4 4 4 4 4 4 4 4 3 2 2 2 2 2 1 1 1 1 1 0 0 0 0 1 1 1 1 0 0 0 0 0 0 0 0
4 3 3 4 4 4 4 4 4 4 4 3 2 2 2 2 1 1 1 1 1 1 0 0 0 0 0 0 0 0 0 0 0 0 0 0 0 0
4 4 4 4 4 3 3 3 4 3 3 3 3 2 2 2 1 1 1 1 1 1 1 0 0 1 1 0 0 0 0 0 0 0 0 0 0 0
5 5 5 4 3 2 2 3 3 3 3 3 3 2 2 2 1 1 1 1 1 1 1 1 1 1 1 1 1 0 0 0 0 0 0 0 0 0
6 6 5 4 3 2 2 2 2 2 3 3 3 2 3 3 2 1 1 1 1 1 1 1 1 1 1 1 1 0 0 0 0 0 0 0 0 0
7 7 6 5 4 4 2 2 1 1 2 2 2 3 3 3 3 2 1 1 1 1 1 1 1 1 1 1 1 0 0 0 0 0 0 0 0 0
6 6 7 7 6 5 4 3 2 2 1 1 2 3 3 3 3 3 2 2 1 1 1 1 1 1 1 1 1 1 0 0 0 0 0 0 0 0
5 5 6 7 7 6 5 5 4 3 2 1 2 2 2 2 3 3 3 2 2 2 2 2 1 1 1 1 1 1 1 0 0 0 0 0 0 0
4 5 5 5 5 5 5 6 6 5 4 3 2 1 1 1 2 2 3 3 2 2 2 2 2 2 1 2 2 2 1 1 1 0 0 0 0 0
4 4 4 3 2 2 4 5 6 5 5 4 3 2 2 2 2 2 3 3 3 2 2 3 2 2 2 2 2 2 2 2 2 1 1 0 0 0
3 3 3 2 1 1 2 3 4 4 5 5 5 4 4 3 3 3 3 3 3 3 3 3 3 2 2 2 2 2 2 2 2 2 1 0 0 0
2 2 2 1 0 0 1 1 2 3 5 6 6 6 5 4 4 4 3 3 3 3 2 3 3 3 2 2 2 2 2 2 2 1 1 1 0 0
2 2 1 1 1 2 2 2 3 4 5 6 7 6 5 5 6 5 5 4 3 2 2 2 3 3 3 3 2 2 2 2 1 1 0 1 1 0
3 3 3 3 4 5 5 5 5 6 7 7 8 7 6 5 5 6 5 5 4 3 3 3 3 3 3 3 2 2 1 1 1 1 0 0 0 0
3 4 4 5 6 8 8 8 8 8 8 8 8 7 6 4 4 4 5 5 4 4 4 4 3 3 2 2 2 1 1 2 2 1 1 0 0 0
4 4 5 6 7 9 9 10 10 9 9 8 8 6 5 4 4 3 3 3 4 4 4 5 4 3 2 2 2 1 1 2 2 2 1 1 1 0
4 5 5 6 7 9 10 11 11 11 9 8 6 5 4 4 3 3 3 3 3 3 4 4 4 4 3 2 2 1 1 1 2 2 2 1 1 0
5 5 6 6 7 8 11 12 13 12 10 8 5 3 3 3 3 3 4 3 3 3 3 3 4 4 3 2 2 1 1 1 1 1 1 1 0 0
6 6 7 7 7 9 12 14 13 11 9 6 3 2 2 2 2 3 3 4 4 4 3 3 3 3 3 2 2 1 1 1 0 0 0 0 0 0
7 7 7 8 8 10 13 14 13 10 8 5 2 1 1 2 2 2 2 3 3 4 3 3 3 3 3 2 1 1 1 1 0 0 0 0 0 0